EW0924 Weather Reports


time (UTC)temp
F
wind
direction
speed
knots
gust
knots
rain 1hr
in
rain 24hr
in
rain mn
in
humidity
%
barometer
mb
20260507075404 45 299 1.7 4.3 0.00 0.70 0.08 96 1005.1
20260507074504 45 279 2.6 6.1 0.00 0.70 0.08 96 1005.1
20260507073625 45 279 2.6 5.2 0.00 0.70 0.08 96 1005.1
20260507072703 45 295 2.6 9.6 0.00 0.70 0.08 96 1005.1
20260507071804 46 287 2.6 6.1 0.00 0.70 0.08 96 1005.1
20260507070904 46 293 3.5 7.8 0.00 0.70 0.08 96 1005.1
20260507070008 46 290 2.6 7.0 0.00 0.70 0.08 97 1005.1
20260507065404 46 289 2.6 5.2 0.00 0.70 0.08 98 1005.1
20260507064505 46 284 2.6 4.3 0.00 0.70 0.08 99 1005.1
20260507063604 46 305 2.6 5.2 0.00 0.70 0.08 99 1005.1
20260507062704 47 307 1.7 5.2 0.00 0.70 0.08 99 1005.1
20260507061804 47 315 1.7 5.2 0.00 0.70 0.08 99 1005.1
20260507060904 47 305 1.7 4.3 0.00 0.70 0.08 99 1005.1
20260507060004 47 311 1.7 3.5 0.00 0.70 0.08 99 1005.1
20260507055404 47 286 1.7 4.3 0.00 0.70 0.08 99 1005.1
20260507054505 47 288 1.7 4.3 0.02 0.70 0.08 99 1005.1
20260507053603 47 311 1.7 4.3 0.02 0.70 0.08 99 1005.1
20260507052705 47 326 2.6 5.2 0.02 0.70 0.08 99 1005.1
20260507051804 47 319 1.7 5.2 0.02 0.70 0.08 99 1005.1
20260507050903 48 319 1.7 6.1 0.08 0.70 0.08 99 1005.1
20260507050004 48 312 2.6 7.8 0.08 0.70 0.08 99 1005.1
20260507045404 48 311 1.7 7.8 0.08 0.70 0.08 99 1005.1
20260507044525 48 307 2.6 5.2 0.07 0.68 0.07 99 1005.1
20260507043605 49 311 2.6 7.8 0.06 0.68 0.06 99 1005.1
20260507042704 49 307 2.6 6.1 0.06 0.68 0.06 99 1005.1
20260507041825 50 312 2.6 7.0 0.07 0.68 0.06 99 1005.1
20260507040904 51 295 2.6 5.2 0.04 0.62 0.00 99 1005.1
20260507040004 51 302 2.6 5.2 0.04 0.62 0.00 99 1005.1
20260507035403 51 316 2.6 7.0 0.04 0.62 0.62 99 1005.1
20260507034504 52 327 2.6 7.0 0.04 0.62 0.62 99 1005.1
20260507033626 52 312 1.7 4.3 0.04 0.62 0.62 99 1005.1
20260507032705 52 308 2.6 7.0 0.04 0.62 0.61 99 1005.1
20260507031803 53 293 2.6 5.2 0.04 0.61 0.61 99 1005.1
20260507030903 54 312 2.6 5.2 0.02 0.58 0.59 99 1005.1
20260507030004 54 280 0.9 6.1 0.02 0.58 0.58 99 1005.1
20260507025425 54 265 0.9 3.5 0.01 0.58 0.58 99 1005.1
20260507024525 54 201 0.9 1.7 0.00 0.57 0.57 99 1005.1
20260507023625 55 273 0.9 2.6 0.00 0.57 0.57 99 1005.1
20260507022705 54 203 1.7 4.3 0.00 0.57 0.57 99 1005.1
20260507021805 54 165 2.6 5.2 0.00 0.57 0.57 99 1005.1
20260507020925 54 154 1.7 5.2 0.00 0.57 0.57 99 1005.1
20260507020004 54 307 0.9 2.6 0.00 0.57 0.57 99 1005.1
20260507015403 54 203 2.6 7.8 0.00 0.57 0.57 99 1005.1
20260507014504 54 169 6.1 10.4 0.00 0.57 0.57 99 1005.1
20260507013624 54 177 4.3 10.4 0.00 0.57 0.57 99 1005.1
20260507012704 54 166 5.2 10.4 0.00 0.57 0.57 99 1005.1
20260507011804 54 168 7.8 11.3 0.00 0.57 0.57 99 1005.1
20260507010903 54 164 7.0 13.9 0.00 0.57 0.57 99 1005.1
20260507010005 54 170 5.2 13.9 0.00 0.62 0.57 99 1005.1
20260507005404 54 167 6.1 12.2 0.00 0.62 0.57 99 1005.1
20260507004504 54 159 7.0 12.2 0.00 0.62 0.57 99 1005.1
20260507003604 55 165 7.0 15.6 0.00 0.62 0.57 99 1005.1
20260507002724 55 166 8.7 15.6 0.00 0.62 0.57 99 1005.1
20260507001803 55 165 7.0 13.9 0.00 0.62 0.57 99 1005.1
20260507000904 55 162 7.0 13.0 0.00 0.62 0.57 99 1005.1
20260507000004 55 157 7.0 11.3 0.00 0.62 0.57 99 1005.1
20260506235424 55 158 7.0 12.2 0.00 0.62 0.57 99 1005.1
20260506234504 55 164 6.1 12.2 0.00 0.62 0.57 99 1005.1
20260506233605 55 164 7.0 12.2 0.00 0.62 0.57 99 1005.1
20260506232703 55 153 6.1 13.9 0.00 0.66 0.57 99 1005.1
20260506231803 55 150 6.1 9.6 0.00 0.66 0.57 99 1005.1
20260506230924 55 158 6.1 10.4 0.01 0.66 0.57 99 1005.1
20260506230025 55 158 5.2 10.4 0.02 0.66 0.57 99 1005.1
20260506225405 55 162 5.2 9.6 0.02 0.68 0.57 99 1005.1
20260506224503 55 151 4.3 9.6 0.02 0.75 0.57 99 1005.1
20260506223603 55 157 4.3 11.3 0.04 0.76 0.57 99 1005.1
20260506222703 55 158 4.3 10.4 0.04 0.75 0.56 99 1005.1
20260506221803 55 157 4.3 8.7 0.06 0.75 0.56 99 1005.1
20260506220903 55 155 3.5 7.0 0.10 0.74 0.56 99 1005.1
20260506220003 55 157 2.6 6.1 0.09 0.74 0.55 99 1005.1
20260506215405 55 134 3.5 7.0 0.16 0.74 0.55 99 1005.1
20260506214505 55 151 2.6 7.0 0.18 0.74 0.55 99 1005.1
20260506213603 55 149 2.6 5.2 0.18 0.72 0.53 99 1005.1
20260506212703 55 147 3.5 6.1 0.20 0.70 0.52 99 1005.1
20260506211804 55 153 3.5 6.1 0.19 0.69 0.50 99 1005.1
20260506210904 55 163 3.5 7.0 0.17 0.66 0.47 99 1005.1
20260506210024 55 155 3.5 8.7 0.19 0.65 0.46 99 1005.1
20260506205403 55 161 4.3 8.7 0.15 0.58 0.39 99 1005.1
20260506204524 55 158 5.2 8.7 0.12 0.56 0.37 99 1005.1
20260506203603 55 155 5.2 8.7 0.11 0.54 0.35 99 1005.1
20260506202703 55 156 5.2 8.7 0.11 0.52 0.32 99 1005.1
20260506201824 55 157 5.2 7.8 0.10 0.50 0.31 99 1005.1
20260506200903 55 161 4.3 9.6 0.10 0.49 0.29 99 1005.1
20260506200005 55 173 4.3 9.6 0.10 0.47 0.27 99 1005.1
20260506195403 55 163 4.3 8.7 0.08 0.44 0.24 99 1005.1
20260506194503 55 166 5.2 11.3 0.13 0.44 0.24 99 1005.1
20260506193603 55 160 5.2 9.6 0.18 0.44 0.24 99 1005.1
20260506192704 56 164 5.2 10.4 0.18 0.42 0.21 99 1005.1
20260506191803 56 160 6.1 12.2 0.18 0.40 0.20 99 1005.1
20260506190924 56 152 5.2 9.6 0.18 0.39 0.19 99 1005.1
20260506190004 56 135 3.5 7.0 0.18 0.38 0.18 99 1005.1
20260506185403 56 130 2.6 7.0 0.16 0.37 0.17 100 1005.1
20260506184503 56 199 1.7 4.3 0.11 0.32 0.11 98 1005.1
20260506183604 57 175 3.5 7.0 0.05 0.26 0.05 97 1005.1
20260506182703 57 153 3.5 8.7 0.04 0.24 0.04 95 1005.1
20260506181824 58 149 3.5 6.1 0.02 0.23 0.03 95 1005.1
20260506180924 58 129 3.5 7.8 0.02 0.22 0.01 94 1005.1
20260506180004 59 144 3.5 7.0 0.00 0.22 0.01 91 1005.1
20260506175403 59 148 5.2 10.4 0.00 0.22 0.00 90 1005.1
20260506174503 60 125 4.3 10.4 0.00 0.21 0.00 89 1005.1
20260506173603 60 120 3.5 7.8 0.00 0.21 0.00 90 1005.1
20260506172724 60 122 4.3 8.7 0.00 0.21 0.00 90 1005.1
20260506171803 60 136 5.2 10.4 0.00 0.21 0.00 89 1005.1
20260506170903 60 142 4.3 9.6 0.00 0.21 0.00 88 1005.1
20260506170003 60 127 4.3 10.4 0.00 0.21 0.00 88 1005.1
20260506165404 60 137 4.3 10.4 0.00 0.21 0.00 88 1005.1
20260506164503 60 128 4.3 10.4 0.00 0.21 0.00 88 1005.1
20260506163603 60 143 7.0 11.3 0.00 0.21 0.00 88 1005.1
20260506162703 60 129 5.2 11.3 0.00 0.21 0.00 87 1005.1
20260506161803 60 146 6.1 11.3 0.00 0.21 0.00 88 1005.1
20260506160904 60 140 4.3 7.8 0.00 0.21 0.00 88 1005.1
20260506160026 60 142 5.2 9.6 0.00 0.21 0.00 88 1005.1
20260506155403 60 153 4.3 9.6 0.00 0.21 0.00 88 1005.1
20260506154524 60 131 5.2 10.4 0.00 0.21 0.00 88 1005.1
20260506153603 60 140 5.2 8.7 0.00 0.21 0.00 88 1005.1
20260506152704 59 157 6.1 9.6 0.00 0.21 0.00 88 1005.1
20260506151803 59 143 6.1 9.6 0.00 0.21 0.00 88 1005.1
20260506150903 59 150 5.2 8.7 0.00 0.21 0.00 87 1005.1
20260506150024 59 153 4.3 7.8 0.00 0.21 0.00 88 1005.1
20260506145403 58 160 4.3 8.7 0.00 0.21 0.00 89 1005.1
20260506144503 58 156 4.3 8.7 0.00 0.21 0.00 89 1005.1
20260506143603 58 154 3.5 6.1 0.00 0.21 0.00 88 1005.1
20260506142724 57 146 2.6 7.0 0.00 0.21 0.00 88 1005.1
20260506141803 57 138 3.5 7.0 0.00 0.21 0.00 89 1005.1
20260506140903 57 134 2.6 7.0 0.00 0.21 0.00 89 1005.1
20260506140003 57 130 2.6 6.1 0.00 0.21 0.00 90 1005.1
20260506135403 57 164 2.6 6.1 0.00 0.21 0.00 90 1005.1
20260506134503 56 168 2.6 5.2 0.00 0.21 0.00 90 1005.1
20260506133604 56 140 2.6 5.2 0.00 0.21 0.00 89 1005.1
20260506132703 57 125 2.6 4.3 0.00 0.21 0.00 90 1005.1
20260506131804 57 111 1.7 4.3 0.00 0.21 0.00 89 1005.1
20260506130905 56 92 0.9 3.5 0.00 0.21 0.00 90 1005.1
20260506130004 56 83 0.9 3.5 0.00 0.21 0.00 90 1005.1
20260506125403 56 84 0.9 3.5 0.00 0.21 0.00 90 1005.1
20260506124503 55 119 1.7 3.5 0.00 0.21 0.00 90 1005.1
20260506123603 55 160 1.7 3.5 0.00 0.21 0.00 91 1005.1
20260506122724 54 87 1.7 4.3 0.00 0.21 0.00 92 1005.1
20260506121803 54 96 1.7 5.2 0.00 0.21 0.00 92 1005.1
20260506120904 54 100 2.6 5.2 0.00 0.21 0.00 92 1005.1
20260506120004 53 103 2.6 6.1 0.00 0.21 0.00 93 1005.1
20260506115404 53 116 2.6 4.3 0.00 0.21 0.00 93 1005.1
20260506114503 53 153 2.6 5.2 0.00 0.21 0.00 93 1005.1
20260506113603 53 132 2.6 6.1 0.00 0.21 0.00 93 1005.1
20260506112703 53 87 1.7 5.2 0.00 0.21 0.00 93 1005.1
20260506111803 53 106 2.6 5.2 0.00 0.21 0.00 93 1005.1
20260506110924 53 124 1.7 3.5 0.00 0.21 0.00 94 1005.1
20260506110004 53 111 0.9 3.5 0.00 0.21 0.00 94 1005.1
20260506105425 53 80 0.0 2.6 0.00 0.21 0.00 94 1005.1
20260506104504 53 106 1.7 4.3 0.00 0.21 0.00 94 1005.1
20260506103603 53 107 2.6 6.1 0.00 0.21 0.00 93 1005.1
20260506102704 53 151 1.7 4.3 0.00 0.21 0.00 93 1005.1
20260506101824 53 121 0.9 3.5 0.00 0.21 0.00 93 1005.1
20260506100903 53 89 1.7 5.2 0.00 0.21 0.00 93 1005.1
20260506100003 53 98 0.9 4.3 0.00 0.21 0.00 92 1005.1
20260506095403 53 114 1.7 4.3 0.00 0.21 0.00 92 1005.1
20260506094503 53 122 1.7 3.5 0.00 0.21 0.00 93 1005.1
20260506093603 52 192 0.9 1.7 0.00 0.21 0.00 95 1005.1
20260506092703 53 261 0.9 2.6 0.00 0.21 0.00 94 1005.1
20260506091825 53 156 0.9 2.6 0.00 0.21 0.00 92 1005.1
20260506090924 53 204 1.7 3.5 0.00 0.21 0.00 93 1005.1
20260506090004 53 174 1.7 3.5 0.00 0.21 0.00 94 1005.1
20260506085403 52 138 1.7 4.3 0.00 0.21 0.00 95 1005.1
20260506084503 52 98 1.7 4.3 0.00 0.21 0.00 95 1005.1
20260506083603 52 93 0.9 4.3 0.00 0.21 0.00 95 1005.1
20260506082703 52 326 0.9 3.5 0.00 0.21 0.00 95 1005.1
20260506081803 52 117 1.7 3.5 0.00 0.21 0.00 95 1005.1
20260506080903 52 51 0.9 2.6 0.00 0.21 0.00 95 1005.1